Location: Horowhenua
(40.7500°S, 175.3333°E)
Time: 17:12:34
(UTC+00:00)

Tiangong - Visible Passes

Search period start: 30 September 2023 00:00
Search period end: 10 October 2023 00:00
Orbit: 372 x 384 km, 41.5° (Epoch: 30 September)

Date Brightness Start Highest point End Pass type
(mag) Time Alt. Az. Time Alt. Az. Time Alt. Az.
02 Oct 0.7 16:43:46 10° NNE 16:44:51 11° NE 16:45:56 10° NE visible
03 Oct -0.6 17:16:30 10° NW 17:19:19 30° NNE 17:22:10 10° E visible
04 Oct 0.0 16:16:47 16° N 16:17:38 18° NNE 16:19:54 10° ENE visible
05 Oct -1.4 16:49:55 16° NW 16:52:08 45° NNE 16:55:11 10° E visible
06 Oct -0.4 15:50:52 26° NE 15:50:52 26° NE 15:53:04 10° E visible
07 Oct -2.0 16:23:47 38° NW 16:24:49 65° NNE 16:27:57 10° E visible
08 Oct 0.3 15:24:35 21° E 15:24:35 21° E 15:25:51 10° E visible
08 Oct -2.1 16:56:38 13° W 16:59:26 79° S 17:02:36 10° E visible
09 Oct -2.3 15:57:22 85° NE 15:57:22 85° NE 16:00:30 10° E visible
